Year,Month,Day,Hour,Minute,Value (Times are PST for temperature in C)
2012,08,16,00,00,16.10
2012,08,16,00,01,16.10
2012,08,16,00,02,16.10
2012,08,16,00,03,16.10
2012,08,16,00,04,16.00
2012,08,16,00,05,16.00
2012,08,16,00,06,16.00
2012,08,16,00,07,16.00
2012,08,16,00,08,16.00
2012,08,16,00,09,15.90
2012,08,16,00,10,15.90
2012,08,16,00,11,15.90
2012,08,16,00,12,15.90
2012,08,16,00,13,15.90
2012,08,16,00,14,15.80
2012,08,16,00,15,15.80
2012,08,16,00,16,15.80
2012,08,16,00,17,15.80
2012,08,16,00,18,15.70
2012,08,16,00,19,15.70
2012,08,16,00,20,15.60
2012,08,16,00,21,15.60
2012,08,16,00,22,15.60
2012,08,16,00,23,15.50
2012,08,16,00,24,15.50
2012,08,16,00,25,15.50
2012,08,16,00,26,15.40
2012,08,16,00,27,15.40
2012,08,16,00,28,15.40
2012,08,16,00,29,15.40
2012,08,16,00,30,15.40
2012,08,16,00,31,15.40
2012,08,16,00,32,15.40
2012,08,16,00,33,15.40
2012,08,16,00,34,15.40
2012,08,16,00,35,15.40
2012,08,16,00,36,15.40
2012,08,16,00,37,15.30
2012,08,16,00,38,15.30
2012,08,16,00,39,15.30
2012,08,16,00,40,15.20
2012,08,16,00,41,15.20
2012,08,16,00,42,15.20
2012,08,16,00,43,15.10
2012,08,16,00,44,15.10
2012,08,16,00,45,15.10
2012,08,16,00,46,15.00
2012,08,16,00,47,15.00
2012,08,16,00,48,15.00
2012,08,16,00,49,14.90
2012,08,16,00,50,14.90
2012,08,16,00,51,14.90
2012,08,16,00,52,14.90
2012,08,16,00,53,14.90
2012,08,16,00,54,14.90
2012,08,16,00,55,14.90
2012,08,16,00,56,14.80
2012,08,16,00,57,14.80
2012,08,16,00,58,14.80
2012,08,16,00,59,14.80
2012,08,16,01,00,14.80
2012,08,16,01,01,14.80
2012,08,16,01,02,14.90
2012,08,16,01,03,14.80
2012,08,16,01,04,14.80
2012,08,16,01,05,14.80
2012,08,16,01,06,14.80
2012,08,16,01,07,14.80
2012,08,16,01,08,14.80
2012,08,16,01,09,14.80
2012,08,16,01,10,14.70
2012,08,16,01,11,14.70
2012,08,16,01,12,14.70
2012,08,16,01,13,14.70
2012,08,16,01,14,14.70
2012,08,16,01,15,14.60
2012,08,16,01,16,14.60
2012,08,16,01,17,14.60
2012,08,16,01,18,14.60
2012,08,16,01,19,14.50
2012,08,16,01,20,14.50
2012,08,16,01,21,14.50
2012,08,16,01,22,14.50
2012,08,16,01,23,14.50
2012,08,16,01,24,14.60
2012,08,16,01,25,14.60
2012,08,16,01,26,14.60
2012,08,16,01,27,14.60
2012,08,16,01,28,14.60
2012,08,16,01,29,14.60
2012,08,16,01,30,14.60
2012,08,16,01,31,14.60
2012,08,16,01,32,14.60
2012,08,16,01,33,14.60
2012,08,16,01,34,14.60
2012,08,16,01,35,14.50
2012,08,16,01,36,14.50
2012,08,16,01,37,14.50
2012,08,16,01,38,14.50
2012,08,16,01,39,14.50
2012,08,16,01,40,14.50
2012,08,16,01,41,14.50
2012,08,16,01,42,14.50
2012,08,16,01,43,14.50
2012,08,16,01,44,14.40
2012,08,16,01,45,14.50
2012,08,16,01,46,14.50
2012,08,16,01,47,14.60
2012,08,16,01,48,14.60
2012,08,16,01,49,14.60
2012,08,16,01,50,14.60
2012,08,16,01,51,14.60
2012,08,16,01,52,14.60
2012,08,16,01,53,14.60
2012,08,16,01,54,14.60
2012,08,16,01,55,14.60
2012,08,16,01,56,14.60
2012,08,16,01,57,14.60
2012,08,16,01,58,14.60
2012,08,16,01,59,14.60
2012,08,16,02,00,14.60
2012,08,16,02,01,14.60
2012,08,16,02,02,14.60
2012,08,16,02,03,14.60
2012,08,16,02,04,14.60
2012,08,16,02,05,14.60
2012,08,16,02,06,14.60
2012,08,16,02,07,14.50
2012,08,16,02,08,14.50
2012,08,16,02,09,14.60
2012,08,16,02,10,14.60
2012,08,16,02,11,14.60
2012,08,16,02,12,14.60
2012,08,16,02,13,14.60
2012,08,16,02,14,14.60
2012,08,16,02,15,14.50
2012,08,16,02,16,14.50
2012,08,16,02,17,14.50
2012,08,16,02,18,14.50
2012,08,16,02,19,14.50
2012,08,16,02,20,14.50
2012,08,16,02,21,14.50
2012,08,16,02,22,14.50
2012,08,16,02,23,14.50
2012,08,16,02,24,14.50
2012,08,16,02,25,14.50
2012,08,16,02,26,14.50
2012,08,16,02,27,14.50
2012,08,16,02,28,14.50
2012,08,16,02,29,14.50
2012,08,16,02,30,14.50
2012,08,16,02,31,14.50
2012,08,16,02,32,14.60
2012,08,16,02,33,14.60
2012,08,16,02,34,14.60
2012,08,16,02,35,14.60
2012,08,16,02,36,14.60
2012,08,16,02,37,14.60
2012,08,16,02,38,14.60
2012,08,16,02,39,14.60
2012,08,16,02,40,14.60
2012,08,16,02,41,14.60
2012,08,16,02,42,14.60
2012,08,16,02,43,14.60
2012,08,16,02,44,14.60
2012,08,16,02,45,14.50
2012,08,16,02,46,14.50
2012,08,16,02,47,14.50
2012,08,16,02,48,14.50
2012,08,16,02,49,14.50
2012,08,16,02,50,14.50
2012,08,16,02,51,14.40
2012,08,16,02,52,14.40
2012,08,16,02,53,14.40
2012,08,16,02,54,14.40
2012,08,16,02,55,14.40
2012,08,16,02,56,14.40
2012,08,16,02,57,14.40
2012,08,16,02,58,14.30
2012,08,16,02,59,14.30
2012,08,16,03,00,14.30
2012,08,16,03,01,14.30
2012,08,16,03,02,14.30
2012,08,16,03,03,14.30
2012,08,16,03,04,14.30
2012,08,16,03,05,14.30
2012,08,16,03,06,14.20
2012,08,16,03,07,14.20
2012,08,16,03,08,14.20
2012,08,16,03,09,14.20
2012,08,16,03,10,14.20
2012,08,16,03,11,14.20
2012,08,16,03,12,14.20
2012,08,16,03,13,14.20
2012,08,16,03,14,14.20
2012,08,16,03,15,14.30
2012,08,16,03,16,14.30
2012,08,16,03,17,14.40
2012,08,16,03,18,14.40
2012,08,16,03,19,14.50
2012,08,16,03,20,14.50
2012,08,16,03,21,14.50
2012,08,16,03,22,14.50
2012,08,16,03,23,14.50
2012,08,16,03,24,14.60
2012,08,16,03,25,14.60
2012,08,16,03,26,14.60
2012,08,16,03,27,14.60
2012,08,16,03,28,14.60
2012,08,16,03,29,14.60
2012,08,16,03,30,14.50
2012,08,16,03,31,14.50
2012,08,16,03,32,14.50
2012,08,16,03,33,14.40
2012,08,16,03,34,14.40
2012,08,16,03,35,14.30
2012,08,16,03,36,14.30
2012,08,16,03,37,14.30
2012,08,16,03,38,14.20
2012,08,16,03,39,14.20
2012,08,16,03,40,14.20
2012,08,16,03,41,14.20
2012,08,16,03,42,14.10
2012,08,16,03,43,14.10
2012,08,16,03,44,14.10
2012,08,16,03,45,14.10
2012,08,16,03,46,14.10
2012,08,16,03,47,14.10
2012,08,16,03,48,14.00
2012,08,16,03,49,14.00
2012,08,16,03,50,14.00
2012,08,16,03,51,13.90
2012,08,16,03,52,13.90
2012,08,16,03,53,13.90
2012,08,16,03,54,13.80
2012,08,16,03,55,13.80
2012,08,16,03,56,13.80
2012,08,16,03,57,13.80
2012,08,16,03,58,13.90
2012,08,16,03,59,13.90
2012,08,16,04,00,14.00
2012,08,16,04,01,14.00
2012,08,16,04,02,14.10
2012,08,16,04,03,14.20
2012,08,16,04,04,14.20
2012,08,16,04,05,14.30
2012,08,16,04,06,14.30
2012,08,16,04,07,14.30
2012,08,16,04,08,14.30
2012,08,16,04,09,14.30
2012,08,16,04,10,14.30
2012,08,16,04,11,14.30
2012,08,16,04,12,14.30
2012,08,16,04,13,14.30
2012,08,16,04,14,14.30
2012,08,16,04,15,14.30
2012,08,16,04,16,14.30
2012,08,16,04,17,14.20
2012,08,16,04,18,14.20
2012,08,16,04,19,14.20
2012,08,16,04,20,14.10
2012,08,16,04,21,14.10
2012,08,16,04,22,14.10
2012,08,16,04,23,14.00
2012,08,16,04,24,14.00
2012,08,16,04,25,14.00
2012,08,16,04,26,13.90
2012,08,16,04,27,13.90
2012,08,16,04,28,14.00
2012,08,16,04,29,14.00
2012,08,16,04,30,14.00
2012,08,16,04,31,14.10
2012,08,16,04,32,14.00
2012,08,16,04,33,14.00
2012,08,16,04,34,14.00
2012,08,16,04,35,13.90
2012,08,16,04,36,13.90
2012,08,16,04,37,13.90
2012,08,16,04,38,13.80
2012,08,16,04,39,13.80
2012,08,16,04,40,13.80
2012,08,16,04,41,13.70
2012,08,16,04,42,13.70
2012,08,16,04,43,13.70
2012,08,16,04,44,13.70
2012,08,16,04,45,13.70
2012,08,16,04,46,13.70
2012,08,16,04,47,13.70
2012,08,16,04,48,13.70
2012,08,16,04,49,13.70
2012,08,16,04,50,13.70
2012,08,16,04,51,13.70
2012,08,16,04,52,13.80
2012,08,16,04,53,13.80
2012,08,16,04,54,13.80
2012,08,16,04,55,13.80
2012,08,16,04,56,13.90
2012,08,16,04,57,13.90
2012,08,16,04,58,13.90
2012,08,16,04,59,13.90
2012,08,16,05,00,13.90
2012,08,16,05,01,13.80
2012,08,16,05,02,13.80
2012,08,16,05,03,13.80
2012,08,16,05,04,13.80
2012,08,16,05,05,13.80
2012,08,16,05,06,13.80
2012,08,16,05,07,13.80
2012,08,16,05,08,13.70
2012,08,16,05,09,13.70
2012,08,16,05,10,13.60
2012,08,16,05,11,13.60
2012,08,16,05,12,13.60
2012,08,16,05,13,13.50
2012,08,16,05,14,13.40
2012,08,16,05,15,13.40
2012,08,16,05,16,13.30
2012,08,16,05,17,13.30
2012,08,16,05,18,13.20
2012,08,16,05,19,13.20
2012,08,16,05,20,13.10
2012,08,16,05,21,13.10
2012,08,16,05,22,13.00
2012,08,16,05,23,13.00
2012,08,16,05,24,12.90
2012,08,16,05,25,12.90
2012,08,16,05,26,12.90
2012,08,16,05,27,12.90
2012,08,16,05,28,12.90
2012,08,16,05,29,13.00
2012,08,16,05,30,13.00
2012,08,16,05,31,13.10
2012,08,16,05,32,13.10
2012,08,16,05,33,13.10
2012,08,16,05,34,13.10
2012,08,16,05,35,13.10
2012,08,16,05,36,13.10
2012,08,16,05,37,13.00
2012,08,16,05,38,13.00
2012,08,16,05,39,13.00
2012,08,16,05,40,13.00
2012,08,16,05,41,13.00
2012,08,16,05,42,13.00
2012,08,16,05,43,13.10
2012,08,16,05,44,13.10
2012,08,16,05,45,13.10
2012,08,16,05,46,13.10
2012,08,16,05,47,13.10
2012,08,16,05,48,13.10
2012,08,16,05,49,13.20
2012,08,16,05,50,13.20
2012,08,16,05,51,13.20
2012,08,16,05,52,13.20
2012,08,16,05,53,13.20
2012,08,16,05,54,13.20
2012,08,16,05,55,13.20
2012,08,16,05,56,13.20
2012,08,16,05,57,13.20
2012,08,16,05,58,13.10
2012,08,16,05,59,13.10
2012,08,16,06,00,13.10
2012,08,16,06,01,13.10
2012,08,16,06,02,13.00
2012,08,16,06,03,13.00
2012,08,16,06,04,13.00
2012,08,16,06,05,12.90
2012,08,16,06,06,12.90
2012,08,16,06,07,12.90
2012,08,16,06,08,12.80
2012,08,16,06,09,12.80
2012,08,16,06,10,12.80
2012,08,16,06,11,12.80
2012,08,16,06,12,12.70
2012,08,16,06,13,12.70
2012,08,16,06,14,12.70
2012,08,16,06,15,12.60
2012,08,16,06,16,12.60
2012,08,16,06,17,12.60
2012,08,16,06,18,12.60
2012,08,16,06,19,12.60
2012,08,16,06,20,12.60
2012,08,16,06,21,12.60
2012,08,16,06,22,12.60
2012,08,16,06,23,12.60
2012,08,16,06,24,12.60
2012,08,16,06,25,12.60
2012,08,16,06,26,12.60
2012,08,16,06,27,12.60
2012,08,16,06,28,12.60
2012,08,16,06,29,12.60
2012,08,16,06,30,12.60
2012,08,16,06,31,12.60
2012,08,16,06,32,12.60
2012,08,16,06,33,12.60
2012,08,16,06,34,12.70
2012,08,16,06,35,12.70
2012,08,16,06,36,12.70
2012,08,16,06,37,12.70
2012,08,16,06,38,12.70
2012,08,16,06,39,12.70
2012,08,16,06,40,12.70
2012,08,16,06,41,12.70
2012,08,16,06,42,12.70
2012,08,16,06,43,12.70
2012,08,16,06,44,12.70
2012,08,16,06,45,12.70
2012,08,16,06,46,12.70
2012,08,16,06,47,12.70
2012,08,16,06,48,12.70
2012,08,16,06,49,12.70
2012,08,16,06,50,12.70
2012,08,16,06,51,12.70
2012,08,16,06,52,12.70
2012,08,16,06,53,12.70
2012,08,16,06,54,12.80
2012,08,16,06,55,12.80
2012,08,16,06,56,12.80
2012,08,16,06,57,12.80
2012,08,16,06,58,12.80
2012,08,16,06,59,12.80
2012,08,16,07,00,12.80
2012,08,16,07,01,12.80
2012,08,16,07,02,12.90
2012,08,16,07,03,12.90
2012,08,16,07,04,12.90
2012,08,16,07,05,12.90
2012,08,16,07,06,13.00
2012,08,16,07,07,13.00
2012,08,16,07,08,13.00
2012,08,16,07,09,13.00
2012,08,16,07,10,13.00
2012,08,16,07,11,13.00
2012,08,16,07,12,13.00
2012,08,16,07,13,13.10
2012,08,16,07,14,13.10
2012,08,16,07,15,13.10
2012,08,16,07,16,13.10
2012,08,16,07,17,13.10
2012,08,16,07,18,13.10
2012,08,16,07,19,13.10
2012,08,16,07,20,13.10
2012,08,16,07,21,13.10
2012,08,16,07,22,13.10
2012,08,16,07,23,13.10
2012,08,16,07,24,13.10
2012,08,16,07,25,13.10
2012,08,16,07,26,13.20
2012,08,16,07,27,13.20
2012,08,16,07,28,13.20
2012,08,16,07,29,13.20
2012,08,16,07,30,13.20
2012,08,16,07,31,13.30
2012,08,16,07,32,13.30
2012,08,16,07,33,13.30
2012,08,16,07,34,13.30
2012,08,16,07,35,13.40
2012,08,16,07,36,13.40
2012,08,16,07,37,13.40
2012,08,16,07,38,13.50
2012,08,16,07,39,13.50
2012,08,16,07,40,13.60
2012,08,16,07,41,13.60
2012,08,16,07,42,13.70
2012,08,16,07,43,13.70
2012,08,16,07,44,13.70
2012,08,16,07,45,13.70
2012,08,16,07,46,13.80
2012,08,16,07,47,13.80
2012,08,16,07,48,13.90
2012,08,16,07,49,13.90
2012,08,16,07,50,14.00
2012,08,16,07,51,14.00
2012,08,16,07,52,14.10
2012,08,16,07,53,14.10
2012,08,16,07,54,14.20
2012,08,16,07,55,14.20
2012,08,16,07,56,14.30
2012,08,16,07,57,14.40
2012,08,16,07,58,14.40
2012,08,16,07,59,14.50
2012,08,16,08,00,14.60
2012,08,16,08,01,14.70
2012,08,16,08,02,14.80
2012,08,16,08,03,14.80
2012,08,16,08,04,14.90
2012,08,16,08,05,15.00
2012,08,16,08,06,15.00
2012,08,16,08,07,15.10
2012,08,16,08,08,15.20
2012,08,16,08,09,15.30
2012,08,16,08,10,15.40
2012,08,16,08,11,15.50
2012,08,16,08,12,15.60
2012,08,16,08,13,15.70
2012,08,16,08,14,15.70
2012,08,16,08,15,15.80
2012,08,16,08,16,15.90
2012,08,16,08,17,15.90
2012,08,16,08,18,16.00
2012,08,16,08,19,16.10
2012,08,16,08,20,16.10
2012,08,16,08,21,16.20
2012,08,16,08,22,16.20
2012,08,16,08,23,16.30
2012,08,16,08,24,16.40
2012,08,16,08,25,16.40
2012,08,16,08,26,16.50
2012,08,16,08,27,16.60
2012,08,16,08,28,16.60
2012,08,16,08,29,16.70
2012,08,16,08,30,16.80
2012,08,16,08,31,16.80
2012,08,16,08,32,16.90
2012,08,16,08,33,17.00
2012,08,16,08,34,17.10
2012,08,16,08,35,17.10
2012,08,16,08,36,17.20
2012,08,16,08,37,17.30
2012,08,16,08,38,17.30
2012,08,16,08,39,17.40
2012,08,16,08,40,17.50
2012,08,16,08,41,17.60
2012,08,16,08,42,17.70
2012,08,16,08,43,17.80
2012,08,16,08,44,17.90
2012,08,16,08,45,18.00
2012,08,16,08,46,18.10
2012,08,16,08,47,18.10
2012,08,16,08,48,18.30
2012,08,16,08,49,18.30
2012,08,16,08,50,18.40
2012,08,16,08,51,18.50
2012,08,16,08,52,18.60
2012,08,16,08,53,18.70
2012,08,16,08,54,18.80
2012,08,16,08,55,18.90
2012,08,16,08,56,19.00
2012,08,16,08,57,19.00
2012,08,16,08,58,19.10
2012,08,16,08,59,19.20
2012,08,16,09,00,19.30
2012,08,16,09,01,19.40
2012,08,16,09,02,19.40
2012,08,16,09,03,19.50
2012,08,16,09,04,19.50
2012,08,16,09,05,19.60
2012,08,16,09,06,19.70
2012,08,16,09,07,19.70
2012,08,16,09,08,19.80
2012,08,16,09,09,19.80
2012,08,16,09,10,19.90
2012,08,16,09,11,20.00
2012,08,16,09,12,20.10
2012,08,16,09,13,20.10
2012,08,16,09,14,20.20
2012,08,16,09,15,20.30
2012,08,16,09,16,20.30
2012,08,16,09,17,20.40
2012,08,16,09,18,20.50
2012,08,16,09,19,20.60
2012,08,16,09,20,20.70
2012,08,16,09,21,20.70
2012,08,16,09,22,20.80
2012,08,16,09,23,20.80
2012,08,16,09,24,20.90
2012,08,16,09,25,21.00
2012,08,16,09,26,21.10
2012,08,16,09,27,21.10
2012,08,16,09,28,21.20
2012,08,16,09,29,21.20
2012,08,16,09,30,21.30
2012,08,16,09,31,21.30
2012,08,16,09,32,21.40
2012,08,16,09,33,21.40
2012,08,16,09,34,21.40
2012,08,16,09,35,21.40
2012,08,16,09,36,21.50
2012,08,16,09,37,21.50
2012,08,16,09,38,21.60
2012,08,16,09,39,21.60
2012,08,16,09,40,21.70
2012,08,16,09,41,21.80
2012,08,16,09,42,21.80
2012,08,16,09,43,21.90
2012,08,16,09,44,22.00
2012,08,16,09,45,22.10
2012,08,16,09,46,22.10
2012,08,16,09,47,22.20
2012,08,16,09,48,22.20
2012,08,16,09,49,22.20
2012,08,16,09,50,22.30
2012,08,16,09,51,22.30
2012,08,16,09,52,22.40
2012,08,16,09,53,22.40
2012,08,16,09,54,22.50
2012,08,16,09,55,22.50
2012,08,16,09,56,22.60
2012,08,16,09,57,22.70
2012,08,16,09,58,22.80
2012,08,16,09,59,22.80
2012,08,16,10,00,22.90
2012,08,16,10,01,23.10
2012,08,16,10,02,23.20
2012,08,16,10,03,23.30
2012,08,16,10,04,23.50
2012,08,16,10,05,23.60
2012,08,16,10,06,23.70
2012,08,16,10,07,23.80
2012,08,16,10,08,23.90
2012,08,16,10,09,24.00
2012,08,16,10,10,24.00
2012,08,16,10,11,24.10
2012,08,16,10,12,24.10
2012,08,16,10,13,24.10
2012,08,16,10,14,24.10
2012,08,16,10,15,24.00
2012,08,16,10,16,24.10
2012,08,16,10,17,24.10
2012,08,16,10,18,24.10
2012,08,16,10,19,24.10
2012,08,16,10,20,24.10
2012,08,16,10,21,24.10
2012,08,16,10,22,24.10
2012,08,16,10,23,24.10
2012,08,16,10,24,24.00
2012,08,16,10,25,23.90
2012,08,16,10,26,23.80
2012,08,16,10,27,23.70
2012,08,16,10,28,23.50
2012,08,16,10,29,23.30
2012,08,16,10,30,23.20
2012,08,16,10,31,23.10
2012,08,16,10,32,23.10
2012,08,16,10,33,23.10
2012,08,16,10,34,23.10
2012,08,16,10,35,23.10
2012,08,16,10,36,23.00
2012,08,16,10,37,23.00
2012,08,16,10,38,23.00
2012,08,16,10,39,23.00
2012,08,16,10,40,23.00
2012,08,16,10,41,23.10
2012,08,16,10,42,23.20
2012,08,16,10,43,23.30
2012,08,16,10,44,23.40
2012,08,16,10,45,23.50
2012,08,16,10,46,23.60
2012,08,16,10,47,23.60
2012,08,16,10,48,23.60
2012,08,16,10,49,23.70
2012,08,16,10,50,23.80
2012,08,16,10,51,23.90
2012,08,16,10,52,23.90
2012,08,16,10,53,24.00
2012,08,16,10,54,24.00
2012,08,16,10,55,24.10
2012,08,16,10,56,24.20
2012,08,16,10,57,24.20
2012,08,16,10,58,24.30
2012,08,16,10,59,24.30
2012,08,16,11,00,24.40
2012,08,16,11,01,24.50
2012,08,16,11,02,24.50
2012,08,16,11,03,24.60
2012,08,16,11,04,24.60
2012,08,16,11,05,24.70
2012,08,16,11,06,24.70
2012,08,16,11,07,24.80
2012,08,16,11,08,24.80
2012,08,16,11,09,24.90
2012,08,16,11,10,24.90
2012,08,16,11,11,25.00
2012,08,16,11,12,25.10
2012,08,16,11,13,25.20
2012,08,16,11,14,25.20
2012,08,16,11,15,25.20
2012,08,16,11,16,25.30
2012,08,16,11,17,25.30
2012,08,16,11,18,25.30
2012,08,16,11,19,25.30
2012,08,16,11,20,25.40
2012,08,16,11,21,25.50
2012,08,16,11,22,25.60
2012,08,16,11,23,25.70
2012,08,16,11,24,25.80
2012,08,16,11,25,25.80
2012,08,16,11,26,25.80
2012,08,16,11,27,25.80
2012,08,16,11,28,25.80
2012,08,16,11,29,25.80
2012,08,16,11,30,25.80
2012,08,16,11,31,25.90
2012,08,16,11,32,26.00
2012,08,16,11,33,26.00
2012,08,16,11,34,26.10
2012,08,16,11,35,26.00
2012,08,16,11,36,26.00
2012,08,16,11,37,26.00
2012,08,16,11,38,26.00
2012,08,16,11,39,26.00
2012,08,16,11,40,26.00
2012,08,16,11,41,26.10
2012,08,16,11,42,26.10
2012,08,16,11,43,26.20
2012,08,16,11,44,26.30
2012,08,16,11,45,26.30
2012,08,16,11,46,26.30
2012,08,16,11,47,26.30
2012,08,16,11,48,26.40
2012,08,16,11,49,26.50
2012,08,16,11,50,26.50
2012,08,16,11,51,26.60
2012,08,16,11,52,26.80
2012,08,16,11,53,26.90
2012,08,16,11,54,27.00
2012,08,16,11,55,27.00
2012,08,16,11,56,26.90
2012,08,16,11,57,26.80
2012,08,16,11,58,26.80
2012,08,16,11,59,26.70
2012,08,16,12,00,26.80
2012,08,16,12,01,26.90
2012,08,16,12,02,27.00
2012,08,16,12,03,27.10
2012,08,16,12,04,27.30
2012,08,16,12,05,27.30
2012,08,16,12,06,27.30
2012,08,16,12,07,27.20
2012,08,16,12,08,27.00
2012,08,16,12,09,26.90
2012,08,16,12,10,26.90
2012,08,16,12,11,26.80
2012,08,16,12,12,26.70
2012,08,16,12,13,26.50
2012,08,16,12,14,26.30
2012,08,16,12,15,26.20
2012,08,16,12,16,26.00
2012,08,16,12,17,25.90
2012,08,16,12,18,25.80
2012,08,16,12,19,25.80
2012,08,16,12,20,25.70
2012,08,16,12,21,25.70
2012,08,16,12,22,25.70
2012,08,16,12,23,25.70
2012,08,16,12,24,25.70
2012,08,16,12,25,25.60
2012,08,16,12,26,25.60
2012,08,16,12,27,25.60
2012,08,16,12,28,25.60
2012,08,16,12,29,25.60
2012,08,16,12,30,25.60
2012,08,16,12,31,25.70
2012,08,16,12,32,25.70
2012,08,16,12,33,25.80
2012,08,16,12,34,25.80
2012,08,16,12,35,25.80
2012,08,16,12,36,25.90
2012,08,16,12,37,25.90
2012,08,16,12,38,26.00
2012,08,16,12,39,26.00
2012,08,16,12,40,26.10
2012,08,16,12,41,26.20
2012,08,16,12,42,26.20
2012,08,16,12,43,26.20
2012,08,16,12,44,26.30
2012,08,16,12,45,26.30
2012,08,16,12,46,26.30
2012,08,16,12,47,26.30
2012,08,16,12,48,26.40
2012,08,16,12,49,26.30
2012,08,16,12,50,26.30
2012,08,16,12,51,26.20
2012,08,16,12,52,26.10
2012,08,16,12,53,25.90
2012,08,16,12,54,25.70
2012,08,16,12,55,25.60
2012,08,16,12,56,25.50
2012,08,16,12,57,25.40
2012,08,16,12,58,25.40
2012,08,16,12,59,25.40
2012,08,16,13,00,25.40
2012,08,16,13,01,25.40
2012,08,16,13,02,25.50
2012,08,16,13,03,25.50
2012,08,16,13,04,25.60
2012,08,16,13,05,25.60
2012,08,16,13,06,25.70
2012,08,16,13,07,25.80
2012,08,16,13,08,25.80
2012,08,16,13,09,25.90
2012,08,16,13,10,26.00
2012,08,16,13,11,26.10
2012,08,16,13,12,26.20
2012,08,16,13,13,26.30
2012,08,16,13,14,26.30
2012,08,16,13,15,26.30
2012,08,16,13,16,26.40
2012,08,16,13,17,26.40
2012,08,16,13,18,26.40
2012,08,16,13,19,26.30
2012,08,16,13,20,26.20
2012,08,16,13,21,26.20
2012,08,16,13,22,26.20
2012,08,16,13,23,26.20
2012,08,16,13,24,26.20
2012,08,16,13,25,26.20
2012,08,16,13,26,26.20
2012,08,16,13,27,26.20
2012,08,16,13,28,26.20
2012,08,16,13,29,26.30
2012,08,16,13,30,26.30
2012,08,16,13,31,26.40
2012,08,16,13,32,26.50
2012,08,16,13,33,26.50
2012,08,16,13,34,26.60
2012,08,16,13,35,26.60
2012,08,16,13,36,26.70
2012,08,16,13,37,26.70
2012,08,16,13,38,26.80
2012,08,16,13,39,26.80
2012,08,16,13,40,26.80
2012,08,16,13,41,26.90
2012,08,16,13,42,26.90
2012,08,16,13,43,26.80
2012,08,16,13,44,26.80
2012,08,16,13,45,26.80
2012,08,16,13,46,26.80
2012,08,16,13,47,26.80
2012,08,16,13,48,26.80
2012,08,16,13,49,26.80
2012,08,16,13,50,26.80
2012,08,16,13,51,26.80
2012,08,16,13,52,26.80
2012,08,16,13,53,26.70
2012,08,16,13,54,26.70
2012,08,16,13,55,26.60
2012,08,16,13,56,26.60
2012,08,16,13,57,26.60
2012,08,16,13,58,26.60
2012,08,16,13,59,26.50
2012,08,16,14,00,26.50
2012,08,16,14,01,26.40
2012,08,16,14,02,26.40
2012,08,16,14,03,26.40
2012,08,16,14,04,26.40
2012,08,16,14,05,26.40
2012,08,16,14,06,26.40
2012,08,16,14,07,26.30
2012,08,16,14,08,26.40
2012,08,16,14,09,26.40
2012,08,16,14,10,26.40
2012,08,16,14,11,26.40
2012,08,16,14,12,26.40
2012,08,16,14,13,26.50
2012,08,16,14,14,26.50
2012,08,16,14,15,26.60
2012,08,16,14,16,26.60
2012,08,16,14,17,26.70
2012,08,16,14,18,26.70
2012,08,16,14,19,26.70
2012,08,16,14,20,26.80
2012,08,16,14,21,26.80
2012,08,16,14,22,26.80
2012,08,16,14,23,26.80
2012,08,16,14,24,26.80
2012,08,16,14,25,26.80
2012,08,16,14,26,26.90
2012,08,16,14,27,26.90
2012,08,16,14,28,26.90
2012,08,16,14,29,26.90
2012,08,16,14,30,26.90
2012,08,16,14,31,26.90
2012,08,16,14,32,27.00
2012,08,16,14,33,27.00
2012,08,16,14,34,27.10
2012,08,16,14,35,27.20
2012,08,16,14,36,27.30
2012,08,16,14,37,27.30
2012,08,16,14,38,27.30
2012,08,16,14,39,27.40
2012,08,16,14,40,27.50
2012,08,16,14,41,27.60
2012,08,16,14,42,27.60
2012,08,16,14,43,27.60
2012,08,16,14,44,27.60
2012,08,16,14,45,27.70
2012,08,16,14,46,27.70
2012,08,16,14,47,27.70
2012,08,16,14,48,27.70
2012,08,16,14,49,27.70
2012,08,16,14,50,27.80
2012,08,16,14,51,27.80
2012,08,16,14,52,27.80
2012,08,16,14,53,27.80
2012,08,16,14,54,27.80
2012,08,16,14,55,27.80
2012,08,16,14,56,27.70
2012,08,16,14,57,27.70
2012,08,16,14,58,27.70
2012,08,16,14,59,27.70
2012,08,16,15,00,27.60
2012,08,16,15,01,27.60
2012,08,16,15,02,27.60
2012,08,16,15,03,27.60
2012,08,16,15,04,27.60
2012,08,16,15,05,27.70
2012,08,16,15,06,27.80
2012,08,16,15,07,27.80
2012,08,16,15,08,27.90
2012,08,16,15,09,28.00
2012,08,16,15,10,28.00
2012,08,16,15,11,28.10
2012,08,16,15,12,28.20
2012,08,16,15,13,28.20
2012,08,16,15,14,28.30
2012,08,16,15,15,28.30
2012,08,16,15,16,28.30
2012,08,16,15,17,28.30
2012,08,16,15,18,28.30
2012,08,16,15,19,28.20
2012,08,16,15,20,28.20
2012,08,16,15,21,28.10
2012,08,16,15,22,28.10
2012,08,16,15,23,28.10
2012,08,16,15,24,28.10
2012,08,16,15,25,28.00
2012,08,16,15,26,27.90
2012,08,16,15,27,27.70
2012,08,16,15,28,27.60
2012,08,16,15,29,27.50
2012,08,16,15,30,27.40
2012,08,16,15,31,27.30
2012,08,16,15,32,27.20
2012,08,16,15,33,27.10
2012,08,16,15,34,27.10
2012,08,16,15,35,27.00
2012,08,16,15,36,27.00
2012,08,16,15,37,26.90
2012,08,16,15,38,26.90
2012,08,16,15,39,27.00
2012,08,16,15,40,27.00
2012,08,16,15,41,27.10
2012,08,16,15,42,27.10
2012,08,16,15,43,27.20
2012,08,16,15,44,27.30
2012,08,16,15,45,27.40
2012,08,16,15,46,27.50
2012,08,16,15,47,27.50
2012,08,16,15,48,27.60
2012,08,16,15,49,27.70
2012,08,16,15,50,27.70
2012,08,16,15,51,27.80
2012,08,16,15,52,27.90
2012,08,16,15,53,28.00
2012,08,16,15,54,28.00
2012,08,16,15,55,28.10
2012,08,16,15,56,28.20
2012,08,16,15,57,28.30
2012,08,16,15,58,28.30
2012,08,16,15,59,28.20
2012,08,16,16,00,28.20
2012,08,16,16,01,28.10
2012,08,16,16,02,28.10
2012,08,16,16,03,28.00
2012,08,16,16,04,28.00
2012,08,16,16,05,27.90
2012,08,16,16,06,27.90
2012,08,16,16,07,27.80
2012,08,16,16,08,27.80
2012,08,16,16,09,27.80
2012,08,16,16,10,27.70
2012,08,16,16,11,27.70
2012,08,16,16,12,27.70
2012,08,16,16,13,27.70
2012,08,16,16,14,27.80
2012,08,16,16,15,27.80
2012,08,16,16,16,27.80
2012,08,16,16,17,27.90
2012,08,16,16,18,28.00
2012,08,16,16,19,28.00
2012,08,16,16,20,28.10
2012,08,16,16,21,28.20
2012,08,16,16,22,28.20
2012,08,16,16,23,28.30
2012,08,16,16,24,28.30
2012,08,16,16,25,28.30
2012,08,16,16,26,28.30
2012,08,16,16,27,28.30
2012,08,16,16,28,28.30
2012,08,16,16,29,28.30
2012,08,16,16,30,28.30
2012,08,16,16,31,28.30
2012,08,16,16,32,28.30
2012,08,16,16,33,28.30
2012,08,16,16,34,28.30
2012,08,16,16,35,28.20
2012,08,16,16,36,28.10
2012,08,16,16,37,28.00
2012,08,16,16,38,27.80
2012,08,16,16,39,27.60
2012,08,16,16,40,27.40
2012,08,16,16,41,27.20
2012,08,16,16,42,27.00
2012,08,16,16,43,26.80
2012,08,16,16,44,26.70
2012,08,16,16,45,26.50
2012,08,16,16,46,26.40
2012,08,16,16,47,26.30
2012,08,16,16,48,26.20
2012,08,16,16,49,26.20
2012,08,16,16,50,26.20
2012,08,16,16,51,26.20
2012,08,16,16,52,26.10
2012,08,16,16,53,26.00
2012,08,16,16,54,25.90
2012,08,16,16,55,25.80
2012,08,16,16,56,25.80
2012,08,16,16,57,25.80
2012,08,16,16,58,25.80
2012,08,16,16,59,25.80
2012,08,16,17,00,25.90
2012,08,16,17,01,25.90
2012,08,16,17,02,26.00
2012,08,16,17,03,26.10
2012,08,16,17,04,26.20
2012,08,16,17,05,26.30
2012,08,16,17,06,26.40
2012,08,16,17,07,26.60
2012,08,16,17,08,26.70
2012,08,16,17,09,26.80
2012,08,16,17,10,26.80
2012,08,16,17,11,26.90
2012,08,16,17,12,27.00
2012,08,16,17,13,27.00
2012,08,16,17,14,27.10
2012,08,16,17,15,27.10
2012,08,16,17,16,27.20
2012,08,16,17,17,27.20
2012,08,16,17,18,27.30
2012,08,16,17,19,27.40